Date String (YYYY-MM-DD hh:mm:ss) UTC,Instrument flags,absolute air pressure of the measurement (hPa),sample flow rate (lpm),inlet stack bypass flow (lpm),air temperature of the measurement (°C),ambient temperature measured by the external sensor (°C),aerosol sample conditioner tube jacket temperature (°C),OPC LED temperature (°C),internal box temperature (°C),relative humidity of the measurement (%),span deviation,mass concentration of particles derived from Lorenz-Mie calculation of OPC scattering (μg/m³),mass concentration of particles derived from Lorenz-Mie calculation of OPC scattering (μg/m³),mass concentration of particles derived from Lorenz-Mie calculation of OPC scattering (μg/m³)
DateTimeUTC,F1_M11,P_M11,Q1_M11,Q2_M11,T1_M11,T2_M11,T3_M11,T4_M11,T5_M11,U1_M11,ZSPAN_M11,X2_M11,X0_M11,X1_M11
2024-05-10 11:00:00,SystemResetWarning,0836.7,4.99,000.00,026.2,025.5,000.0,034.4,027.9,020.8,0000.0,0003.19,0004.21,0002.91
2024-05-10 11:01:00,SystemResetWarning,0836.6,5.00,000.00,026.2,025.6,000.0,034.4,027.9,021.0,0000.0,0003.18,0004.15,0002.90
2024-05-10 11:02:00,SystemResetWarning,0836.6,5.00,000.00,026.2,025.6,000.0,034.5,027.9,021.2,0000.0,0003.20,0004.26,0002.91
2024-05-10 11:03:00,SystemResetWarning,0836.7,5.00,000.00,026.2,025.6,000.0,034.5,027.9,021.3,0000.0,0003.21,0004.39,0002.90
2024-05-10 11:04:00,SystemResetWarning,0836.7,5.00,000.00,026.2,025.6,000.0,034.5,027.9,021.4,0000.0,0003.21,0004.47,0002.89
2024-05-10 11:05:00,SystemResetWarning,0836.7,5.01,000.00,026.2,025.6,000.0,034.5,027.9,021.6,0000.0,0003.21,0004.58,0002.89
2024-05-10 11:06:00,SystemResetWarning,0836.7,5.01,000.00,026.2,025.6,000.0,034.5,027.9,021.5,0000.0,0003.23,0004.59,0002.91
2024-05-10 11:07:00,SystemResetWarning,0836.7,5.01,000.00,026.2,025.6,000.0,034.5,027.9,021.5,0000.0,0003.25,0004.70,0002.93
2024-05-10 11:08:00,SystemResetWarning,0836.7,5.00,000.00,026.2,025.6,000.0,034.5,028.0,021.3,0000.0,0003.28,0005.27,0002.96
2024-05-10 11:09:00,SystemResetWarning,0836.7,5.00,000.00,026.2,025.6,000.0,034.5,027.9,021.1,0000.0,0003.30,0005.61,0002.98
2024-05-10 11:10:00,SystemResetWarning,0836.7,5.00,000.00,026.2,025.6,000.0,034.5,027.9,020.7,0000.0,0003.31,0005.64,0002.99
2024-05-10 11:11:00,SystemResetWarning,0836.7,5.00,000.00,026.2,025.6,000.0,034.5,027.9,020.6,0000.0,0003.32,0005.74,0002.99
2024-05-10 11:12:00,SystemResetWarning,0836.7,4.99,000.00,026.2,025.6,000.0,034.5,027.9,020.6,0000.0,0003.32,0005.83,0002.99
2024-05-10 11:13:00,SystemResetWarning,0836.7,4.99,000.00,026.2,025.6,000.0,034.5,027.9,020.6,0000.0,0003.30,0005.69,0002.96
2024-05-10 11:14:00,SystemResetWarning,0836.8,5.00,000.00,026.2,025.6,000.0,034.5,027.9,020.7,0000.0,0003.27,0006.46,0002.94
2024-05-10 11:15:00,SystemResetWarning,0836.8,5.00,000.00,026.2,025.6,000.0,034.5,027.9,020.7,0000.0,0003.25,0007.20,0002.93
2024-05-10 11:16:00,SystemResetWarning,0836.8,5.00,000.00,026.2,025.6,000.0,034.5,027.9,020.9,0000.0,0003.25,0007.07,0002.90
2024-05-10 11:17:00,SystemResetWarning,0836.8,5.00,000.00,026.2,025.6,000.0,034.5,028.0,020.8,0000.0,0003.25,0007.07,0002.88
2024-05-10 11:18:00,SystemResetWarning,0836.7,5.00,000.00,026.2,025.6,000.0,034.5,027.9,020.8,0000.0,0003.24,0007.09,0002.87
2024-05-10 11:19:00,SystemResetWarning,0836.7,5.01,000.00,026.2,025.6,000.0,034.5,027.9,020.9,0000.0,0003.22,0006.96,0002.84
2024-05-10 11:20:00,SystemResetWarning,0836.7,5.00,000.00,026.2,025.6,000.0,034.5,027.9,021.1,0000.0,0003.26,0006.57,0002.85
2024-05-10 11:21:00,SystemResetWarning,0836.6,4.99,000.00,026.2,025.6,000.0,034.5,028.0,021.0,0000.0,0003.28,0006.62,0002.86
2024-05-10 11:22:00,SystemResetWarning,0836.6,4.99,000.00,026.2,025.6,000.0,034.5,028.0,020.8,0000.0,0003.32,0006.73,0002.90
2024-05-10 11:23:00,SystemResetWarning,0836.7,5.01,000.00,026.2,025.6,000.0,034.5,028.0,020.8,0000.0,0003.31,0006.57,0002.92
2024-05-10 11:24:00,SystemResetWarning,0836.7,5.01,000.00,026.2,025.6,000.0,034.5,028.0,020.8,0000.0,0003.32,0006.61,0002.94
2024-05-10 11:25:00,SystemResetWarning,0836.6,5.00,000.00,026.2,025.6,000.0,034.5,028.0,020.8,0000.0,0003.36,0006.17,0002.98
2024-05-10 11:26:00,SystemResetWarning,0836.6,4.99,000.00,026.2,025.6,000.0,034.5,027.9,020.8,0000.0,0003.40,0005.19,0003.00
2024-05-10 11:27:00,SystemResetWarning,0836.6,4.99,000.00,026.2,025.6,000.0,034.5,027.9,020.8,0000.0,0003.42,0005.47,0003.02
2024-05-10 11:28:00,SystemResetWarning,0836.6,5.00,000.00,026.2,025.6,000.0,034.5,028.0,020.6,0000.0,0003.43,0005.69,0003.03
2024-05-10 11:29:00,SystemResetWarning,0836.6,5.01,000.00,026.2,025.6,000.0,034.5,028.0,020.5,0000.0,0003.42,0005.72,0003.03
2024-05-10 11:30:00,SystemResetWarning,0836.6,5.01,000.00,026.2,025.6,000.0,034.5,028.0,020.5,0000.0,0003.45,0006.72,0003.04
2024-05-10 11:31:00,SystemResetWarning,0836.7,5.00,000.00,026.2,025.6,000.0,034.5,028.0,020.5,0000.0,0003.43,0006.63,0003.03
2024-05-10 11:32:00,SystemResetWarning,0836.7,5.00,000.00,026.2,025.6,000.0,034.6,028.0,020.5,0000.0,0003.42,0006.71,0003.01
2024-05-10 11:33:00,SystemResetWarning,0836.7,4.99,000.00,026.3,025.6,000.0,034.6,028.0,020.6,0000.0,0003.38,0007.44,0002.99
2024-05-10 11:34:00,SystemResetWarning,0836.6,5.00,000.00,026.3,025.6,000.0,034.6,028.0,020.6,0000.0,0003.41,0007.83,0002.98
2024-05-10 11:35:00,SystemResetWarning,0836.6,4.99,000.00,026.3,025.6,000.0,034.6,028.0,020.6,0000.0,0003.42,0008.18,0002.98
2024-05-10 11:36:00,SystemResetWarning,0836.6,5.02,000.00,026.3,025.6,000.0,034.6,028.0,020.6,0000.0,0003.43,0008.19,0002.98
2024-05-10 11:37:00,SystemResetWarning,0836.6,5.00,000.00,026.3,025.6,000.0,034.6,028.0,020.4,0000.0,0003.39,0008.09,0002.97
2024-05-10 11:38:00,SystemResetWarning,0836.6,4.99,000.00,026.3,025.6,000.0,034.6,028.0,020.5,0000.0,0003.35,0008.06,0002.96
2024-05-10 11:39:00,SystemResetWarning,0836.6,5.00,000.00,026.3,025.6,000.0,034.6,028.0,020.4,0000.0,0003.34,0007.93,0002.96
2024-05-10 11:40:00,SystemResetWarning,0836.6,5.00,000.00,026.3,025.6,000.0,034.6,028.0,020.3,0000.0,0003.35,0007.88,0002.94
2024-05-10 11:41:00,SystemResetWarning,0836.6,4.99,000.00,026.3,025.6,000.0,034.6,028.0,020.4,0000.0,0003.32,0007.96,0002.94
2024-05-10 11:42:00,SystemResetWarning,0836.6,5.00,000.00,026.3,025.6,000.0,034.6,028.0,020.3,0000.0,0003.31,0007.97,0002.94
2024-05-10 11:43:00,SystemResetWarning,0836.6,5.01,000.00,026.3,025.7,000.0,034.6,028.0,020.3,0000.0,0003.29,0007.83,0002.92
2024-05-10 11:44:00,SystemResetWarning,0836.6,5.01,000.00,026.3,025.7,000.0,034.6,028.0,020.4,0000.0,0003.27,0007.30,0002.91
2024-05-10 11:45:00,SystemResetWarning,0836.6,5.01,000.00,026.3,025.7,000.0,034.6,028.0,020.4,0000.0,0003.27,0007.00,0002.91
2024-05-10 11:46:00,SystemResetWarning,0836.6,5.00,000.00,026.3,025.7,000.0,034.6,028.0,020.4,0000.0,0003.30,0006.56,0002.91
2024-05-10 11:47:00,SystemResetWarning,0836.6,4.99,000.00,026.3,025.7,000.0,034.6,028.0,020.3,0000.0,0003.30,0006.75,0002.90
2024-05-10 11:48:00,SystemResetWarning,0836.6,5.00,000.00,026.3,025.7,000.0,034.6,028.0,020.3,0000.0,0003.27,0006.77,0002.87
2024-05-10 11:49:00,SystemResetWarning,0836.6,4.99,000.00,026.3,025.7,000.0,034.6,028.0,020.4,0000.0,0003.26,0007.45,0002.85
2024-05-10 11:50:00,SystemResetWarning,0836.6,5.00,000.00,026.3,025.7,000.0,034.6,028.0,020.4,0000.0,0003.26,0007.42,0002.85
2024-05-10 11:51:00,SystemResetWarning,0836.6,5.01,000.00,026.3,025.7,000.0,034.6,028.0,020.3,0000.0,0003.26,0007.45,0002.86
2024-05-10 11:52:00,SystemResetWarning,0836.6,5.01,000.00,026.3,025.7,000.0,034.6,028.0,020.3,0000.0,0003.29,0006.85,0002.87
2024-05-10 11:53:00,SystemResetWarning,0836.6,5.00,000.00,026.3,025.7,000.0,034.6,028.0,020.3,0000.0,0003.30,0006.59,0002.86
2024-05-10 11:54:00,SystemResetWarning,0836.6,5.00,000.00,026.3,025.7,000.0,034.6,028.0,020.3,0000.0,0003.30,0006.66,0002.87
2024-05-10 11:55:00,SystemResetWarning,0836.6,5.00,000.00,026.3,025.7,000.0,034.6,028.0,020.4,0000.0,0003.32,0006.91,0002.89
2024-05-10 11:56:00,SystemResetWarning,0836.7,5.00,000.00,026.3,025.7,000.0,034.6,028.0,020.4,0000.0,0003.32,0007.02,0002.90
2024-05-10 11:57:00,SystemResetWarning,0836.7,4.99,000.00,026.3,025.7,000.0,034.6,028.0,020.4,0000.0,0003.29,0007.11,0002.91
2024-05-10 11:58:00,SystemResetWarning,0836.7,5.00,000.00,026.3,025.7,000.0,034.6,028.1,020.4,0000.0,0003.27,0007.68,0002.90
2024-05-10 11:59:00,SystemResetWarning,0836.7,5.00,000.00,026.3,025.7,000.0,034.6,028.1,020.5,0000.0,0003.29,0007.72,0002.92
